Flag for Germany Weather past 2 weeks in Iserlohn, North Rhine-Westphalia, Germany

Now
59 °F

Passing clouds.


Feels Like: 58 °F
Forecast: 48 / 75 °F
Wind: 8 mph from Southwest

Location: Dortmund / Wickede

Current Time: Aug 28, 2015 at 9:46:47 AM

Latest Report: Aug 28, 2015 at 9:20 AM


Visibility: N/A

Pressure: 30.01 "Hg

Humidity: 82%

Dew point: 54 °F

Location of IserlohnLocation

Historic Weather in Iserlohn — Graph

°F

Iserlohn temperature yesterday

Maximum temperature yesterday: 70 °F (at 5:50 AM)
Minimum temperature yesterday: 55 °F (at 5:20 PM)
Average temperature yesterday: 62 °F

Past Weeks' High & Low Weather Summary

 TemperatureHumidityPressure
High84 °F (Aug 13, 3:50 PM)94% (Aug 16, 6:20 AM)30.24 "Hg (Aug 16, 6:20 AM)
Low50 °F (Aug 19, 5:20 AM)26% (Aug 22, 4:50 PM)29.56 "Hg (Aug 24, 2:50 PM)
Average66 °F65%29.93 "Hg
* Reported Aug 13 8:20 AM — Aug 28 8:20 AM, Iserlohn, Weather by CustomWeather, © 2015

Note: Actual official high and low records may vary slightly from our data, if they occured in-between our weather recording intervals... More about our weather records

Advertising

Iserlohn weather history for previous 24 hours

 ConditionsComfort  
Time TempWeatherWind HumidityBarometerVisibility
8:20 AM
Fri, Aug 28
57 °FPassing clouds.6 mph82%30.01 "HgN/A
7:50 AM55 °FPassing clouds.6 mph88%29.98 "HgN/A
7:20 AM54 °FClear.7 mph88%29.98 "Hg10 mi
6:50 AM54 °FPassing clouds.8 mph88%29.98 "Hg6 mi
5:50 AM55 °FPassing clouds.6 mph88%29.95 "HgN/A
5:20 AM55 °FPassing clouds.7 mph88%29.95 "HgN/A
10:50 PM
Thu, Aug 27
55 °FLight rain. Passing clouds.5 mph88%29.89 "HgN/A
10:20 PM55 °FLight rain. Passing clouds.6 mph88%29.89 "HgN/A
9:50 PM55 °FLight rain. Passing clouds.5 mph88%29.89 "HgN/A
9:20 PM55 °FLight rain. Partly sunny.3 mph88%29.86 "HgN/A
8:50 PM55 °FLight rain. Partly sunny.3 mph88%29.86 "HgN/A
8:20 PM55 °FLight rain. Partly sunny.6 mph88%29.86 "Hg4 mi
7:50 PM55 °FLight rain. Partly sunny.7 mph88%29.86 "HgN/A
7:20 PM55 °FLight rain. Partly sunny.6 mph94%29.86 "Hg4 mi
6:50 PM55 °FLight rain. Fog.7 mph94%29.86 "Hg3 mi
6:20 PM57 °FLight rain. Fog.8 mph88%29.86 "Hg2 mi
5:50 PM55 °FLight rain. Fog.5 mph94%29.86 "Hg2 mi
5:20 PM55 °FLight rain. Broken clouds.6 mph88%29.86 "Hg4 mi
4:50 PM57 °FLight rain. Broken clouds.8 mph88%29.86 "Hg4 mi
4:20 PM59 °FLight rain. Partly sunny.7 mph88%29.86 "Hg4 mi
3:50 PM59 °FLight rain. Broken clouds.7 mph88%29.86 "Hg5 mi
3:20 PM59 °FLight rain. Broken clouds.7 mph88%29.86 "Hg4 mi
2:50 PM61 °FLight rain. Broken clouds.12 mph83%29.86 "Hg4 mi
2:20 PM61 °FLight rain. Broken clouds.14 mph77%29.86 "Hg4 mi
1:50 PM63 °FLight rain. Broken clouds.13 mph77%29.86 "Hg4 mi
1:20 PM64 °FScattered showers. Broken clouds.12 mph73%29.86 "HgN/A
12:50 PM64 °FPartly sunny.13 mph68%29.86 "HgN/A
12:20 PM64 °FPartly sunny.9 mph73%29.86 "HgN/A
11:20 AM66 °FPassing clouds.12 mph60%29.86 "HgN/A
10:50 AM66 °FPassing clouds.13 mph64%29.86 "HgN/A
10:20 AM66 °FSprinkles. Passing clouds.14 mph64%29.86 "HgN/A
9:50 AM66 °FMore clouds than sun.16 mph64%29.83 "HgN/A
9:20 AM66 °FLight rain. Overcast.16 mph73%29.83 "HgN/A
Weather by CustomWeather, © 2015

See weather overviewHow to use our weather pages